| time (UTC) | temp C | wind direction | speed KPH | gust KPH | rain 1hr cm | rain 24hr cm | rain mn cm | humidity % | barometer mb |
| 20260504174519 | 13 | 341 | 12.9 | 27.4 | 0.00 | 0.00 | 0.00 | 32 | 1012.5 |
| 20260504173019 | 14 | 310 | 11.3 | 33.8 | 0.00 | 0.00 | 0.00 | 32 | 1012.5 |
| 20260504171521 | 14 | 324 | 12.9 | 20.9 | 0.00 | 0.00 | 0.00 | 32 | 1012.5 |
| 20260504130105 | 6 | 315 | 9.7 | 16.1 | 0.00 | 0.00 | 0.00 | 67 | 1012.7 |
| 20260504081537 | 8 | 33 | 3.2 | 14.5 | 0.00 | 0.00 | 0.00 | 57 | 1012.3 |
| 20260504044557 | 12 | 101 | 4.8 | 16.1 | 0.00 | 0.00 | 0.00 | 37 | 1006.7 |
| 20260504043100 | 13 | 328 | 4.8 | 16.1 | 0.00 | 0.00 | 0.00 | 38 | 1006.7 |
| 20260504041552 | 14 | 14 | 4.8 | 17.7 | 0.00 | 0.00 | 0.00 | 36 | 1006.2 |
| 20260504040120 | 14 | 23 | 4.8 | 22.5 | 0.00 | 0.00 | 0.00 | 36 | 1005.8 |
| 20260504034548 | 14 | 69 | 4.8 | 17.7 | 0.00 | 0.00 | 0.00 | 35 | 1005.6 |
| 20260504033048 | 15 | 48 | 3.2 | 12.9 | 0.00 | 0.00 | 0.00 | 35 | 1005.4 |
| 20260504031553 | 15 | 54 | 3.2 | 12.9 | 0.00 | 0.00 | 0.00 | 34 | 1005.1 |
| 20260504030043 | 16 | 95 | 3.2 | 14.5 | 0.00 | 0.00 | 0.00 | 34 | 1004.7 |
| 20260504024536 | 16 | 59 | 1.6 | 4.8 | 0.00 | 0.00 | 0.00 | 32 | 1004.5 |
| 20260504023037 | 18 | 68 | 1.6 | 6.4 | 0.00 | 0.00 | 0.00 | 28 | 1004.4 |
| 20260504021528 | 18 | 43 | 0.0 | 3.2 | 0.00 | 0.00 | 0.00 | 23 | 1004.4 |
| 20260504020026 | 19 | 358 | 1.6 | 6.4 | 0.00 | 0.00 | 0.00 | 22 | 1004.3 |
| 20260504014527 | 20 | 27 | 1.6 | 8.0 | 0.00 | 0.00 | 0.00 | 21 | 1004.5 |
| 20260504013020 | 21 | 23 | 1.6 | 9.7 | 0.00 | 0.00 | 0.00 | 20 | 1004.5 |
| 20260504011517 | 22 | 330 | 3.2 | 11.3 | 0.00 | 0.00 | 0.00 | 19 | 1004.5 |
| 20260504010016 | 23 | 351 | 3.2 | 14.5 | 0.00 | 0.00 | 0.00 | 19 | 1004.6 |
| 20260504004520 | 24 | 89 | 4.8 | 11.3 | 0.00 | 0.00 | 0.00 | 18 | 1004.7 |
| 20260504003011 | 24 | 353 | 6.4 | 16.1 | 0.00 | 0.00 | 0.00 | 18 | 1005.0 |
| 20260504001510 | 25 | 2 | 4.8 | 24.1 | 0.00 | 0.00 | 0.00 | 18 | 1005.1 |
| 20260504000008 | 25 | 27 | 6.4 | 19.3 | 0.00 | 0.00 | 0.00 | 17 | 1005.3 |
| 20260503234508 | 26 | 324 | 12.9 | 25.7 | 0.00 | 0.00 | 0.00 | 17 | 1005.3 |
| 20260503233014 | 26 | 356 | 11.3 | 22.5 | 0.00 | 0.00 | 0.00 | 17 | 1005.4 |
| 20260503231504 | 26 | 341 | 3.2 | 22.5 | 0.00 | 0.00 | 0.00 | 17 | 1005.6 |
| 20260503230004 | 26 | 352 | 11.3 | 27.4 | 0.00 | 0.00 | 0.00 | 16 | 1005.6 |
| 20260503224600 | 25 | 337 | 6.4 | 29.0 | 0.00 | 0.00 | 0.00 | 18 | 1005.8 |
| 20260503223102 | 24 | 310 | 17.7 | 35.4 | 0.00 | 0.00 | 0.00 | 17 | 1006.0 |
| 20260503221601 | 25 | 322 | 9.7 | 32.2 | 0.00 | 0.00 | 0.00 | 16 | 1006.2 |
| 20260503214555 | 24 | 322 | 11.3 | 33.8 | 0.00 | 0.00 | 0.00 | 17 | 1006.6 |
| 20260503213054 | 23 | 345 | 8.0 | 22.5 | 0.00 | 0.00 | 0.00 | 19 | 1006.7 |
| 20260503211552 | 23 | 311 | 3.2 | 35.4 | 0.00 | 0.00 | 0.00 | 17 | 1006.9 |
| 20260503204552 | 24 | 295 | 11.3 | 25.7 | 0.00 | 0.00 | 0.00 | 18 | 1007.7 |
| 20260503203056 | 23 | 346 | 9.7 | 24.1 | 0.00 | 0.00 | 0.00 | 17 | 1007.8 |
| 20260503201550 | 24 | 3 | 8.0 | 22.5 | 0.00 | 0.00 | 0.00 | 19 | 1007.9 |
| 20260503194552 | 24 | 315 | 11.3 | 27.4 | 0.00 | 0.00 | 0.00 | 18 | 1008.5 |
| 20260503193043 | 23 | 333 | 9.7 | 35.4 | 0.00 | 0.00 | 0.00 | 19 | 1008.6 |
| 20260503191538 | 25 | 349 | 6.4 | 24.1 | 0.00 | 0.00 | 0.00 | 20 | 1008.9 |
| 20260503184533 | 22 | 2 | 11.3 | 22.5 | 0.00 | 0.00 | 0.00 | 20 | 1009.4 |
| 20260503183031 | 22 | 352 | 8.0 | 29.0 | 0.00 | 0.00 | 0.00 | 20 | 1009.4 |
| 20260503181529 | 23 | 326 | 16.1 | 32.2 | 0.00 | 0.00 | 0.00 | 18 | 1009.6 |